Flag for France Weather past 2 weeks in Bastia, Corsica, France

Now
54 °F

Passing clouds.


Feels Like: 53 °F
Forecast: 53 / 64 °F
Wind: 5 mph from North

Location: Bastia Airport


UV Index: 5 (Moderate)

Visibility: N/A


Pressure: 29.71 "Hg

Humidity: 77%

Dew point: 46 °F

Location of BastiaLocation

Historic Weather in Bastia

°F

Bastia temperature yesterday

Maximum temperature yesterday: 66 °F (at 11:00 AM)
Minimum temperature yesterday: 48 °F (at 5:30 AM)
Average temperature yesterday: 58 °F

Past Weeks' High & Low Weather Summary

 TemperatureHumidityPressure
High72 °F (Apr 7, 10:30 AM)94% (Apr 7, 3:00 AM)30.15 "Hg (Apr 7, 3:00 AM)
Low43 °F (Apr 16, 4:00 AM)30% (Apr 17, 2:10 PM)29.50 "Hg (Apr 19, 5:00 AM)
Average58 °F71%29.97 "Hg
* Reported Apr 5 2:00 AM — Apr 20 2:30 AM, Bastia, Weather by CustomWeather, © 2014

Note: Actual official high and low records may vary slightly from our data, if they occured in-between our weather recording intervals... More about our weather records

Advertising

Historic Weather Conditions — Data for Previous 24 hours

 ConditionsComfort  
Time TempWeatherWind HumidityBarometerVisibility
2:30 AM
Apr 20
54 °FClear.2 mph77%29.71 "HgN/A
2:00 AM55 °FPassing clouds.7 mph72%29.71 "HgN/A
1:30 AM55 °FPassing clouds.9 mph77%29.71 "HgN/A
1:00 AM55 °FPassing clouds.5 mph72%29.71 "HgN/A
12:30 AM55 °FPassing clouds.1 mph72%29.71 "HgN/A
12:00 AM57 °FPassing clouds.5 mph63%29.71 "HgN/A
11:30 PM
Apr 19
57 °FPassing clouds.10 mph63%29.71 "HgN/A
11:00 PM55 °FPassing clouds.8 mph72%29.68 "HgN/A
10:30 PM55 °FPassing clouds.5 mph67%29.68 "HgN/A
10:00 PM55 °FPartly cloudy.No wind67%29.68 "HgN/A
9:30 PM57 °FPartly cloudy.5 mph63%29.65 "HgN/A
9:00 PM57 °FPartly sunny.7 mph67%29.65 "HgN/A
8:30 PM55 °FPartly sunny.2 mph67%29.65 "HgN/A
8:00 PM55 °FPartly sunny.3 mph72%29.65 "HgN/A
7:00 PM57 °FPartly sunny.10 mph67%29.62 "HgN/A
6:30 PM59 °FPartly sunny.13 mph68%29.62 "HgN/A
6:00 PM59 °FPartly sunny.15 mph68%29.62 "HgN/A
5:30 PM61 °FPartly sunny.9 mph63%29.62 "HgN/A
5:00 PM61 °FPartly sunny.9 mph63%29.59 "HgN/A
4:30 PM61 °FPartly sunny.3 mph63%29.59 "HgN/A
4:15 PM61 °FPartly sunny.6 mph59%29.59 "HgN/A
3:30 PM61 °FPartly sunny.12 mph63%29.56 "HgN/A
3:00 PM64 °FPartly sunny.14 mph60%29.56 "HgN/A
2:30 PM64 °FPartly sunny.14 mph60%29.56 "HgN/A
2:00 PM64 °FPartly sunny.17 mph60%29.56 "HgN/A
1:30 PM64 °FPartly sunny.18 mph56%29.53 "HgN/A
1:00 PM66 °FPartly sunny.20 mph52%29.53 "HgN/A
12:30 PM66 °FScattered clouds.13 mph46%29.53 "HgN/A
12:00 PM66 °FPassing clouds.10 mph56%29.53 "HgN/A
11:30 AM64 °FPassing clouds.12 mph60%29.50 "HgN/A
11:00 AM66 °FPassing clouds.7 mph52%29.50 "HgN/A
10:30 AM64 °FPassing clouds.8 mph52%29.50 "HgN/A
10:00 AM64 °FPassing clouds.7 mph68%29.50 "HgN/A
9:30 AM63 °FPassing clouds.8 mph68%29.50 "HgN/A
9:00 AM61 °FPassing clouds.10 mph72%29.50 "HgN/A
8:30 AM59 °FPassing clouds.7 mph77%29.50 "HgN/A
8:00 AM52 °FPassing clouds.2 mph94%29.50 "HgN/A
7:30 AM48 °FPassing clouds.3 mph87%29.50 "HgN/A
7:00 AM48 °FPassing clouds.2 mph87%29.50 "HgN/A
6:30 AM48 °FPassing clouds.3 mph87%29.50 "HgN/A
6:00 AM48 °FPassing clouds.2 mph94%29.50 "HgN/A
5:30 AM48 °FPassing clouds.No wind87%29.50 "HgN/A
5:00 AM50 °FPassing clouds.2 mph88%29.50 "HgN/A
4:30 AM52 °FPassing clouds.2 mph88%29.53 "HgN/A
4:00 AM52 °FOvercast.2 mph88%29.53 "HgN/A
3:30 AM54 °FOvercast.3 mph82%29.53 "HgN/A
3:00 AM54 °FOvercast.2 mph82%29.56 "HgN/A
Weather by CustomWeather, © 2014

See weather overview